Historyczne dane pomiarowe

Dodano dane terminowe – wersja testowa.

Dane z okresu 1951-2019

Wersja bazy: 1.34 [2019-03-16, lista zmian], aktualizacja planowana na 2019-04-15

Dane meteo z obszaru Polski uzyskane na podstawie danych udostępnionych przez Instytut Meteorologii i Gospodarki Wodnej – Państwowy Instytut Badawczy.

 

Wybierz Datę:    

       

TemperaturaWilgotnośćWiatrCiśnienieOpadyŚniegCzas trwania zjawisk
 Stacja t tx tn tng RH VA  wxwx mslp ppp RRR   cm mm wxwxwxwxwxwxwx
2019-06-13 25.2 31.8 17.1 16.2 60.3- 1.3 3.0---- 11.8------------
2019-06-12 25.5 33.3 16.1 15.7 58.3- 1.0 1.7---- 0.0------------
2019-06-11 24.6 30.3 16.1 8.8 61.5- 1.7 2.7---- 0.0------------
2019-06-10 20.8 27.9 9.2 8.8 63.8- 1.3 3.7---- 0.0------------
2019-06-09 20.2 28.3 13.1 12.8 65.8- 1.3 0.7---- 0.0------------
2019-06-08 21.4 28.1 13.1 13.8 75.8- 4.3 1.7---- 0.4------------
2019-06-07 19.9 26.3 12.1 11.3 78.5- 2.7 1.0---- 0.0------------
2019-06-06 20.5 25.8 13.1 13.1 72.3- 4.3 3.0---- 0.0------------
2019-06-05 21.1 27.8 12.1 11.3 69.3- 1.0 2.7---- 0.0------------
2019-06-04 20.5 27.8 11.1 10.8 68.0- 1.7 2.3---- 0.0------------
2019-06-03 18.1 24.8 9.1 8.3 67.8- 1.3 1.3---- 0.0------------
2019-06-02 18.5 24.8 9.6 8.3 85.3- 5.7 0.0---- 2.9------------
2019-06-01 17.9 22.9 9.6 8.8 79.8- 3.7 0.0---- 0.0------------
2019-05-31 15.5 21.5 7.7 7.4 58.5- 1.7 0.3---- 0.0------------
2019-05-30 13.1 21.5 4.3 3.9 78.5- 3.0 0.3---- 0.0------------
2019-05-29 14.0 16.5 11.6 10.8 87.5- 8.0 1.0---- 0.8------------
2019-05-28 17.8 24.3 13.6 12.8 90.3- 8.0 1.7---- 22.6------------
2019-05-27 17.8 24.4 11.1 9.3 82.3- 5.7 1.3---- 1.6------------
2019-05-26 14.7 20.9 7.2 4.9 70.8- 1.7 3.0---- 0.0------------
2019-05-25 16.5 22.3 9.6 8.8 68.5- 3.7 2.3---- 0.0------------
2019-05-24 14.1 18.1 9.6 9.3 83.0- 4.3 0.3---- 0.0------------
2019-05-23 16.0 22.4 11.1 10.8 90.5- 6.0 1.3---- 0.8------------
2019-05-22 13.8 18.0 9.6 9.3 95.0- 8.0 3.0---- 10.0------------
2019-05-21 16.0 21.9 11.1 10.8 88.0- 5.0 3.7---- 0.5------------
2019-05-20 17.8 23.8 13.6 12.8 85.0- 5.7 2.7---- 37.1------------
2019-05-19 17.6 21.9 12.6 12.3 89.5- 8.0 2.3---- 0.0------------
2019-05-18 16.7 22.9 10.1 7.9 90.0- 7.0 2.3---- 12.7------------
2019-05-17 16.8 20.5 12.6 10.8 82.0- 4.0 2.3---- 0.0------------
2019-05-16 14.8 17.9 11.1 10.3 88.5- 8.0 1.3---- 1.8------------
2019-05-15 11.1 14.3 6.7 6.4 83.0- 8.0 0.3---- 15.3------------
2019-05-14 7.3 11.0 4.8 4.4 97.5- 8.0 0.7---- 4.6------------
2019-05-13 9.2 16.0 5.3 5.4 89.0- 8.0 1.3---- 2.6------------
2019-05-12 14.3 21.9 4.3 3.4 68.3- 4.3 1.7---- 0.0------------
2019-05-11 11.5 17.9 3.4 0.5 85.3- 7.3 2.3---- 0.0------------
2019-05-10 10.8 14.3 7.7 5.9 84.8- 7.3 0.0---- 0.7------------
2019-05-09 11.4 17.9 4.8 3.4 60.5- 4.3 2.3---- 0.2------------
2019-05-08 7.5 13.3 -1.0 -5.5 57.8- 7.0 1.7---- 0.0------------
2019-05-07 10.0 17.9 4.8 3.4 65.0- 3.3 0.7---- 0.0------------
2019-05-06 7.7 12.2 2.9 2.5 68.8- 8.0 0.7---- 0.0------------
2019-05-05 7.1 10.8 3.9 1.0 81.5- 7.7 2.0---- 0.0------------
2019-05-04 8.8 13.8 2.9 -2.0 69.8- 4.3 1.7---- 0.0------------
2019-05-03 8.7 11.3 5.3 3.4 78.8- 5.7 3.3---- 0.0------------
2019-05-02 10.4 16.3 5.3 2.5 71.8- 4.3 5.3---- 0.0------------
2019-05-01 11.3 17.9 3.9 3.4 79.0- 4.3 1.3---- 4.9------------
2019-04-30 12.1 16.9 7.2 4.4 79.0- 4.3 1.3---- 0.0------------
2019-04-29 14.1 18.7 9.6 9.3 85.5- 7.7 1.3---- 0.0------------
2019-04-28 10.9 13.0 9.1 8.8 92.5- 8.0 2.7---- 1.8------------
2019-04-27 15.5 20.4 11.6 7.9 72.0- 5.0 4.7---- 0.0------------
2019-04-26 17.9 25.1 10.1 7.9 69.0- 1.7 2.0---- 0.0------------
2019-04-25 16.5 22.9 9.6 8.8 60.0- 3.7 3.3---- 0.0------------
2019-04-24 13.1 18.4 7.7 5.9 60.0- 7.7 4.7---- 2.2------------
2019-04-23 11.9 17.5 4.8 2.0 50.3- 1.0 6.7---- 0.0------------
2019-04-22 10.0 15.8 5.3 2.5 76.0- 7.7 5.7---- 0.0------------
2019-04-21 9.1 15.3 5.3 2.0 86.8- 7.7 2.0---- 16.8------------
2019-04-20 10.6 18.4 2.9 -2.5 77.8- 1.7 0.7---- 0.0------------
2019-04-19 11.3 18.9 4.3 -2.0 71.8- 1.0 1.3---- 0.0------------
2019-04-18 9.8 18.6 -1.5 -3.5 72.8- 1.0 0.7---- 0.0------------
2019-04-17 2.9 8.0 -1.0 -3.5 84.0- 1.0 1.0---- 0.0------------
2019-04-16 3.0 8.3 -2.4 -7.4 86.8- 5.7 0.3---- 2.0------------
2019-04-15 5.3 12.0 -1.0 -5.5 64.0- 1.0 1.3---- 0.0------------
197.9 ms

 

Źródłem pochodzenia danych jest Instytut Meteorologii i Gospodarki Wodnej – Państwowy Instytut Badawczy. Dane Instytutu Meteorologii i Gospodarki Wodnej – Państwowego Instytutu Badawczego zostały przetworzone.

Dane źródłowe można odnaleźć na stronie https://dane.imgw.pl